Regional Weather Roundup
Issued by NWS

Home | Current Version | Previous Version | Text Only | Print | Product List | Glossary On
Versions: 1 2 3 4 5 6 7 8 9 10 11 12 13 14 15 16 17 18 19 20 21 22 23 24 25 26 27 28 29 30 31 32 33 34 35 36 37 38 39 40 41 42 43 44 45 46 47 48 49 50
000
ASUS44 KFWD 020910
RWRTX
NORTH TEXAS HOURLY WEATHER ROUNDUP
NATIONAL WEATHER SERVICE FORT WORTH TX
400 AM CDT MON MAY 02 2016

NOTE: "FAIR" INDICATES FEW OR NO CLOUDS BELOW 12,000 FEET WITH NO
SIGNIFICANT WEATHER AND/OR OBSTRUCTIONS TO VISIBILITY.

TXZ118-119-021000-
DALLAS/FORT WORTH METROPLEX

CITY           SKY/WX    TMP DP  RH WIND       PRES   REMARKS
DFW AIRPORT    CLOUDY    58  51  78 N14       30.04F
DALLAS LOVE    CLOUDY    59  52  77 N13       30.06R
FTW MEACHAM    TSTM      56  52  86 NW17G28   30.09R FOG
DAL-EXECUTIVE  CLOUDY    59  50  72 N17       30.04R
FTW-ALLIANCE   TSTM      55  51  86 NW14      30.11R
FTW-NAS-JRB    TSTM      57  52  83 N16G24    30.10R
FTW-SPINKS     CLOUDY    57  51  78 N14G21    30.10R
ARLINGTON      CLOUDY    61  52  72 NW13      30.07R
GRAND PRAIRIE  CLOUDY    58  51  77 N13G20    30.07R
ADDISON        CLOUDY    58  54  87 N10       30.08R
MESQUITE       CLOUDY    60  50  69 N15       30.04R
LANCASTER      CLOUDY    61  48  63 N14       30.04S
$$

TXZ091>094-102>105-117-120-121-131>134-021000-
NORTH CENTRAL TEXAS

CITY           SKY/WX    TMP DP  RH WIND       PRES   REMARKS
SHRMAN/DENISON CLOUDY    50  46  86 N10G17    30.08S
GAINESVILLE    CLOUDY    52  49  87 N15       30.11S
BOWIE          CLOUDY    51  48  89 NW13      30.11R
BRIDGEPORT     RAIN      53  50  89 N9        30.13R
DECATUR        CLOUDY    53  49  89 W8        30.14R
DENTON         CLOUDY    55  49  80 N16G28    30.07S
MCKINNEY       CLOUDY    57  53  86 N9        30.05S
GREENVILLE     CLOUDY    59  50  72 N9        30.03R
ROCKWALL       CLOUDY    58  52  80 N12G17    30.03R
TERRELL        CLOUDY    61  50  67 N9        30.03R
WAXAHACHIE     CLOUDY    60  52  75 N13G18    30.04S
CLEBURNE       CLOUDY    57  54  88 NW13G21   30.10R
GRANBURY       CLOUDY    56  51  81 N10       30.10S
$$

TXZ083>090-098>101-113>116-127>130-139>142-154-155-021000-
WESTERN NORTH TEXAS

CITY           SKY/WX    TMP DP  RH WIND       PRES   REMARKS
WICHITA FALLS  PTCLDY    49  45  86 NW12      30.15R
WF-KICKAPOO    MOCLDY    53  46  78 NW12      30.15S
VERNON         MOCLDY    51  39  65 N12G17    30.18R
ABILENE        LGT RAIN  50  48  93 N13       30.13F
BRECKENRIDGE   RAIN      52  50  95 N5G17     30.15R
GRAHAM         CLOUDY    53  49  87 N7        30.12F
MINERAL WELLS  LGT RAIN  52  49  89 N15       30.10S
STEPHENVILLE   CLOUDY    54  48  81 N16       30.14R
COMANCHE       CLOUDY    53  49  87 N18       30.12R
COLEMAN        CLOUDY    52  46  78 N17G25    30.12S
$$

TXZ143>147-156>162-174-175-021000-
CENTRAL TEXAS

CITY           SKY/WX    TMP DP  RH WIND       PRES   REMARKS
WACO           CLOUDY    62  50  64 N10       30.02F
WACO-MCGREGOR  MOCLDY    61  51  70 N13       30.03F
HILLSBORO      CLOUDY    60  51  72 NW10      30.04R
CORSICANA      CLEAR     62  49  62 N13       30.00F
MEXIA          PTCLDY    61  49  64 N8        29.98F
HEARNE         CLOUDY    63  55  76 CALM      29.98S
CAMERON        CLOUDY    63  56  78 N6        29.99R
TEMPLE         MOCLDY    61  52  72 N13       30.02S
KILLEEN        NOT AVBL
KILLEEN-SKYLRK CLOUDY    61  50  67 N17       30.03F
GATESVILLE     CLOUDY    61  48  63 MISG      30.07S
HAMILTON       CLOUDY    57  50  78 N14G20    30.08S
LAMPASAS       CLOUDY    58  50  75 N9        30.05S
$$

TXZ095>097-106>112-122>126-135>138-148>153-164>167-021000-
EAST TEXAS

CITY           SKY/WX    TMP DP  RH WIND       PRES   REMARKS
PARIS          MOCLDY    57  46  67 N13       30.01F
SULPHUR SPRNGS CLOUDY    61  51  69 NE8       30.02F
MOUNT PLEASANT CLOUDY    62  48  60 N13       30.01F
MINEOLA        CLOUDY    63  50  63 N7        30.00F
TYLER          PTCLDY    62  48  60 N13       29.97F
LONGVIEW       CLOUDY    63  51  65 N9        29.97S
MARSHALL       CLOUDY    63  55  77 N8        29.99R
ATHENS         MOCLDY    61  46  59 N10G16    29.96F
PALESTINE      CLOUDY    61  55  81 N7        29.98F
JACKSONVILLE   CLOUDY    59  57  91 N6        29.99F
HENDERSON      CLOUDY    60  55  85 CALM      30.00R
CENTER         CLOUDY    69  65  89 NW5       29.96R
NACOGDOCHES    CLOUDY    64  57  77 N6        29.97R
LUFKIN         CLOUDY    67  62  84 N8        29.95R
$$

SUPPLEMENTAL OBSERVATIONS (CENTRAL)

CITY           SKY/WX    TMP DP  RH WIND       PRES   REMARKS
CADDO GRASSLND   N/A     55  52  88 NW3G12      N/A
PAT MAYSE LAKE   N/A     55  54  94 NW6         N/A
MCGREGOR         N/A     61  52  72 N7G16       N/A
TEMPLE           N/A     63  52  67 NW3G17      N/A
$$

SUPPLEMENTAL OBSERVATIONS (WEST)

CITY           SKY/WX    TMP DP  RH WIND       PRES   REMARKS
MILLERS CREEK    N/A     48  43  81 N7          N/A
POSSUM KINGDOM   N/A     52  48  87 N7G15       N/A
LBJ GRASSLAND    N/A     54  48  82 W5G17       N/A
GRANBURY         N/A     55  48  76 N10G25      N/A
HAMBY            N/A     48  45  87 N7          N/A
IVIE RESERVOIR   N/A     54  45  71 N13G22      N/A
COLORADO BEND    N/A     57  48  72 NE8         N/A
$$

SUPPLEMENTAL OBSERVATIONS (EAST)

CITY           SKY/WX    TMP DP  RH WIND       PRES   REMARKS
CLARKSVILLE      N/A     59  50  72 N5G16       N/A
TEXARKANA        N/A     61  55  82 N6          N/A
LINDEN           N/A     61  52  72 VRB1G12     N/A
GILMER           N/A     63  52  67 VRB7G15     N/A
HENDERSON        N/A     61  55  82 NW5         N/A
LUFKIN           N/A     66  59  77 MISG        N/A
N SABINE NF      N/A     68  66  94 MISG        N/A
S SABINE NF      N/A     68  66  94 S1          N/A
$$

SUPPLEMENTAL OBSERVATIONS ARE A COLLECTION OF AUTOMATED INSTRUMENTS
THAT ARE MAINTAINED BY A VARIETY OF FEDERAL AND STATE AGENCIES.
CERTAIN ELEMENTS...SUCH AS HUMIDITY VALUES AND SUSTAINED WIND
SPEEDS...MAY BE APPROXIMATED.





USA.gov is the U.S. government's official web portal to all federal, state and local government web resources and services.